Regional Weather Roundup
Issued by NWS Wakefield, VA

Home | Current Version | Previous Version | Graphics & Text | Print | Product List | Glossary On
Versions: 1 2 3 4 5 6 7 8 9 10 11 12 13 14 15 16 17 18 19 20 21 22 23 24 25 26 27 28 29 30 31 32 33 34 35 36 37 38 39 40 41 42 43 44 45 46 47 48 49 50
000
ASUS41 KAKQ 240115
RWRAKQ

REGIONAL WEATHER ROUNDUP
NATIONAL WEATHER SERVICE WAKEFIELD VA
900 PM EDT SAT JUL 23 2016

Note: "fair" indicates few or no clouds below 12,000 feet with no
significant weather and/or obstructions to visibility. * = Denotes
station may not report precipitation (e.g., rain,snow,etc.),
thunder or fog.

VAZ042-051-052>054-056-240200-
NORTHERN VIRGINIA

CITY           SKY/WX    TMP DP  RH WIND       PRES   REMARKS
WASH NATIONAL  MOCLDY    92  70  48 SW8       29.88S HX  97
DULLES         LGT RAIN  83  70  64 SW5       29.90S
FORT BELVOIR   FAIR      88  75  66 CALM      29.89S HX  97
QUANTICO       FAIR      86  77  74 NW3       29.89S HX  97
FREDERICKSBRG*   N/A     85  77  77 CALM      29.88F HX  95
STAFFORD*      FAIR      82  74  76 CALM      29.93F
WARRENTON      FAIR      85  71  62 CALM      29.90F
CULPEPER*      MOCLDY    84  79  83 CALM      29.91S HX  96
MANASSAS*      NOT AVBL
LEESBURG*      FAIR      88  77  70 CALM      29.91S HX 100
WINCHESTER     FAIR      86  68  54 NW6       29.93S
FRONT ROYAL*   FAIR      86  70  58 CALM      29.93S
LURAY*         FAIR      79  77  94 CALM      29.95S
$$

VAZ048-049-060>072-079>083-240200-
CENTRAL AND SOUTH CENTRAL VIRGINIA

CITY           SKY/WX    TMP DP  RH WIND       PRES   REMARKS
RICHMOND       FAIR      82  76  81 S6        29.92R
CHESTERFIELD*  FAIR      84  66  54 S3        29.93R
PETERSBURG*    FAIR     N/A N/A N/A CALM      29.94R
HANOVER        FAIR      81  74  79 CALM      29.93R
TAPPAHANNOCK*  FAIR      83  76  81 S3        29.91F
QUINTON*       FAIR      83  80  89 CALM      29.91S HX  95
CHARLOTTSVILLE FAIR      89  71  55 SW6       29.92S HX  95
GORDONSVILLE*  FAIR      80  77  88 CALM      29.92S
ORANGE*          N/A     82  73  74 CALM      29.94S
LOUISA*        FAIR      82  79  89 CALM      29.91F
BUMPASS*       FAIR      80  78  92 CALM      29.91S
FARMVILLE*     FAIR      83  73  72 CALM      29.93
CREWE*         FAIR      82  77  86 CALM      29.94R
FORT PICKETT*  FAIR      81  79  95 CALM      29.94R
CHASE CITY*    FAIR      82  79  90 CALM      29.95R
CLARKSVILLE*   FAIR      79  79 100 CALM      29.95R
SOUTH HILL*    FAIR      82  76  82 CALM      30.01R
LAWRENCEVILLE* FAIR      82  76  83 MISG      29.94R
EMPORIA*       FAIR      82  73  74 CALM      29.95R
$$

VAZ088>098-240200-
SOUTHEAST VIRGINIA

CITY           SKY/WX    TMP DP  RH WIND       PRES   REMARKS
NORFOLK        FAIR      90  73  57 SW9       29.92R HX  98
VIRGINIA BEACH FAIR      92  75  57 SW6       29.92R HX 103
NORFOLK NAVAL  FAIR      86  73  65 SW6       29.94R
WEST POINT*    FAIR      83  77  82 CALM      29.92S
SALUDA*        FAIR      85  79  82 SW3       29.90F HX  98
NEWPORT NEWS   FAIR      86  76  71 SW7       29.92R HX  96
LANGLEY AFB    FAIR      86  76  70 S6        29.92R HX  96
FORT EUSTIS    FAIR      85  80  85 S3        29.91R HX  99
WILLIAMSBURG*  FAIR      86  77  74 CALM      29.93S HX  97
HR EXEC AP*    FAIR      82  73  74 SW3       29.95R
FRANKLIN*      FAIR      84  75  74 S3        29.93R
US460-WAKEFLD  FAIR      81  76  84 CALM      29.93R
$$

VAZ020-022-025-037-045-240200-
WEST CENTRAL AND SOUTHWEST VIRGINIA

CITY           SKY/WX    TMP DP  RH WIND       PRES   REMARKS
STAUNTON*      MOCLDY    84  70  64 N5        29.99R
WAYNESBORO*    FAIR      83  68  59 SW3       29.99S
HOT SPRINGS VA FAIR      77  64  65 W9        30.15S
LYNCHBURG      FAIR      78  73  84 CALM      29.98R
DANVILLE       FAIR      82  74  76 S3        29.94S
SOUTH BOSTON*  FAIR      81  79  92 CALM      29.94R
MARTINSVILLE   FAIR      77  73  85 CALM      30.00R
ROANOKE        FAIR      87  67  51 SE6       30.00R
BLACKSBURG     FAIR      83  68  60 S5        30.08R
DUBLIN*        FAIR      81  72  72 S6        30.06S
MARION*        FAIR      76  71  83 CALM      30.11R
HILLSVILLE*    FAIR      79  67  66 S3        30.08S
RICHLANDS*     FAIR      80  71  74 CALM      30.10S
WISE*          FAIR      73  61  64 CALM      30.11S
ABINGDON*      FAIR      82  69  65 N3        30.06S
$$

MDZ021>025-VAZ099-100-240200-
SOUTHERN MARYLAND AND THE DELMARVA PENINSULA

CITY           SKY/WX    TMP DP  RH WIND       PRES   REMARKS
PATUXENT RIVER CLEAR     88  71  57 SW7       29.88S
BAY BRIDGE APT TSTM      79  73  83 SW12G20   29.91R
LEONARDTOWN    CLEAR     86  70  58 CALM      29.91S
DOVER          LGT RAIN  77  77 100 S5        29.87S
GEORGETOWN     CLOUDY    85  73  67 S3        29.89R
EASTON         MOCLDY    91  81  70 NW5       29.92R HX 110
CAMBRIDGE      CLEAR     82  77  83 CALM      29.88R
SALISBURY      PTCLDY    83  76  79 S7        29.88S
OCEAN CITY     CLOUDY    85  77  77 SW5       29.89R HX  95
WALLOPS ISLAND FAIR      82  76  81 S6        29.90S
ACCOMACK*      FAIR      84  75  74 CALM      29.91R
$$

NCZ012>017-030>032-240200-
NORTH CENTRAL AND EASTERN NORTH CAROLINA

CITY           SKY/WX    TMP DP  RH WIND       PRES   REMARKS
ROANOKE RAPIDS FAIR      81  77  89 S3        29.95R
RALEIGH        PTCLDY    86  75  69 S5        29.96R HX  95
ELIZABETH CITY CLEAR     85  76  74 S7        29.94R
AHOSKIE*       CLEAR     81  78  90 CALM      29.95R
EDENTON*       CLEAR     87  75  67 S10       29.95S HX  96
CURRITUCK*     CLEAR     85  76  74 CALM      29.95R HX  95
KILL DEVIL HLS CLEAR     84  76  77 S7        29.95R
MANTEO           N/A     84  80  86 SW14      29.97R HX  97
CAPE HATTERAS  CLEAR     83  76  79 SW8       29.99R
TARBORO*       FAIR      83  78  86 CALM      29.96R
GOLDSBORO      CLEAR     85  79  81 S8        29.95R HX  99
WASHINGTON     CLEAR     83  74  73 S6        29.97R
GREENVILLE     CLEAR     86  75  70 S12       29.98R HX  95
NEW BERN       CLEAR     81  73  76 SW8       29.99R
WILMINGTON     PTCLDY    82  74  76 SW7       29.99R
$$

VAZ048-240200-
ELSEWHERE

CITY           SKY/WX    TMP DP  RH WIND       PRES   REMARKS
HARRISBURG PA  PTCLDY    83  72  69 E6        29.87R
BALTIMORE      CLOUDY    78  72  81 SE6       29.88S
ANNAPOLIS      LGT RAIN  80  74  81 SE13      29.90R
ANDREWS AFB    FAIR      87  72  59 SW7       29.88S
PHILADELPHIA   PTCLDY    83  70  64 SW6       29.88R
GREENSBORO     PTCLDY    86  67  52 S9        29.97R
ROCKY MOUNT    CLEAR     81  77  88 CALM      29.96R
$$

VAZ100-240200-
MARINE

STATION/POSITION TIME  TEMP    WIND        PRES    WAVE   SWELL
                       AIR SEA DIR/SP/G            HT/PER HT/PER
                 (UTC) (F)     (DEG/KT/KT) (MB)    (FT/S) (FT/S)
BRANDYWINE LGT   0000          310/ 13/ 18   N/A
CAPE MAY NJ      0000      77                N/A
LEWES DE         0000      76                N/A
OCEAN-CITY-INLET 0000      80                N/A
WACHAPREAGUE VA  0000      89                N/A
THOMAS POINT MD  0100   83 82  110/  8/ 11 1013.8R
GOOSES REEF MD   0000   90 84  250/  8/ 12 1012.7R   1/ 3
COVE POINT MD    0000          280/  5/  8 1012.4
SOLOMONS ISLAND  0000      85                N/A
BISHOPS HEAD MD  0000          220/  4/  6 1012.2
PINEY POINT MD   0000          270/  6/  6   N/A
POTOMAC MD       0000   89 85  250/  8/  8 1010.9R   1
CAMBRIDGE MD     0000      86                N/A
LEWISETTA VA     0000      87                N/A
RAPPAHANNOCK LGT 0000          230/  6/  6 1013.4R
STINGRAY PT      0000   90 85  200/  4/  6 1013.1R   0
YORK RVR RNG VA  0000          230/  9/ 10 1012.4
YORKTOWN VA      0000      85                N/A
JAMESTOWN VA     0000   90 88  180/  4/  6   N/A     0
DOMINION TERM VA 0000          240/  7/  7 1013.1
KIPTOPEKE VA     0000      83                N/A
CHES BAY BRIDGE  0000      83                N/A
CAPE HENRY VA    0000          230/  6/  8   N/A
WILLOUBY STN VA  0000          260/  6/  8   N/A
CAPE HENRY BUOY  0012      81                N/A     2/ 8
1ST LANDING BUOY 0000   88 84  230/  8/  8 1012.4R
CAPE CHARLES BUO 0026      73                N/A     2/ 8
OFFSHORE WE BUOY 0021      82                N/A     2/ 8
64NM E OF VA BCH 2350   82 81  210/ 14/ 17 1013.2    3/ 8   2/ 8
DUCK PIER NC     0000      67                N/A
44100 DUCK FRF   0005      83                N/A     2/ 8
44056 DUCK FRF   0011      76                N/A     2/ 8
OREGON INLET NC  0000      85                N/A
HATTERAS NC      0000      83                N/A
DIAMOND SHLS NC  0050   84 86  220/ 14/ 16 1015.3R   3/ 8   2/ 8
CAPE LOOKOUT NC  0100   83     210/  8/ 11 1015.4R
$$



USA.gov is the U.S. government's official web portal to all federal, state and local government web resources and services.